Vorticity
5 4 4 4 4 4 5 5 5 6 6 7 7 7 7 7 6 5 4 4 3 4 5 6 6 7 6 3 2 2 3 3 5
4 4 4 4 4 5 6 7 7 7 7 6 6 6 7 7 7 7 7 6 6 5 5 2 5 2 3 4 8 7 4 2 3
4 4 3 4 5 6 7 7 6 6 5 5 5 5 5 5 5 6 7 8 7 7 8 6 6 5 8 2 5 5 10 8 5
4 3 4 4 5 6 7 7 6 5 4 4 5 5 6 7 7 7 7 7 7 7 8 8 7 8 3 5 2 5 5 7 8
4 4 4 5 6 6 6 5 4 4 5 5 6 7 8 7 8 8 9 9 9 7 10 7 9 8 6 7 2 2 4 7 4
4 4 5 6 7 7 5 4 4 6 6 7 8 8 9 10 9 9 9 9 8 10 10 9 9 9 9 5 12 -2 3 3 0
4 4 6 7 6 4 4 4 5 6 7 8 9 10 10 10 11 11 11 10 9 9 10 12 12 8 10 11 -1 6 2 3 3
4 6 7 5 5 4 4 5 7 9 9 10 10 11 12 12 11 11 10 10 13 15 13 11 12 13 11 3 8 9 3 -2 1
5 6 5 5 4 4 5 7 8 8 8 9 10 11 11 11 11 11 11 12 12 12 13 15 14 12 13 14 15 13 14 13 12
6 5 5 5 5 6 6 6 7 10 10 10 10 11 10 10 11 13 13 13 12 13 14 12 13 15 17 15 17 19 18 17 17
5 5 5 5 6 6 8 8 11 12 12 11 10 11 9 8 11 13 12 11 10 10 10 11 12 14 13 13 13 14 15 14 15
5 6 6 6 6 9 9 10 11 9 9 9 10 11 9 6 8 12 14 12 10 9 10 11 9 10 12 13 13 13 13 13 12
6 5 6 6 8 10 7 7 9 9 8 9 10 11 10 4 6 6 8 12 13 14 12 9 8 9 9 9 9 9 9 9 9
5 7 6 7 9 7 5 5 6 9 10 8 10 12 10 9 6 4 8 8 9 9 10 10 11 11 12 12 11 10 10 10 9
7 6 7 7 9 6 5 5 5 7 9 9 10 12 9 8 10 5 6 7 10 11 9 9 11 10 10 10 10 10 10 9 9
7 6 7 9 7 6 6 6 6 4 8 8 12 11 11 8 6 8 6 5 7 7 10 10 9 9 10 11 11 9 10 10 11
7 7 8 5 4 4 5 7 6 6 5 6 7 9 11 10 10 9 7 5 6 4 5 8 9 8 10 10 12 10 9 11 10
7 7 3 3 5 6 8 8 9 7 8 8 6 8 7 7 8 9 9 10 8 6 5 5 6 7 8 10 11 10 9 9 9
7 3 4 5 8 9 11 10 10 10 10 10 8 7 7 6 4 10 7 8 9 9 9 7 6 6 7 8 9 9 9 8 8
3 4 7 7 10 11 11 10 11 9 10 11 8 7 6 6 6 5 5 8 8 7 8 8 8 8 6 6 8 9 10 9 7
Height
3173 3171 3170 3168 3167 3165 3164 3162 3160 3158 3156 3154 3152 3150 3148 3146 3145 3143 3140 3139 3138 3137 3137 3136 3136 3135 3135 3134 3133 3133 3133 3132 3132
3172 3171 3169 3168 3166 3164 3162 3160 3158 3156 3154 3152 3150 3147 3145 3143 3141 3139 3137 3135 3134 3133 3133 3133 3132 3132 3131 3131 3130 3129 3129 3129 3128
3171 3170 3168 3167 3165 3163 3161 3158 3156 3154 3151 3149 3147 3144 3142 3140 3138 3136 3134 3132 3130 3129 3129 3127 3127 3127 3127 3126 3125 3124 3124 3124 3124
3171 3169 3167 3165 3164 3162 3159 3156 3154 3151 3149 3146 3144 3141 3138 3136 3133 3131 3129 3127 3125 3124 3123 3122 3122 3123 3122 3121 3121 3120 3119 3119 3118
3170 3169 3167 3164 3162 3159 3157 3155 3152 3149 3146 3144 3140 3137 3134 3131 3128 3126 3123 3121 3120 3118 3118 3116 3116 3116 3116 3116 3115 3115 3114 3114 3114
3169 3167 3165 3163 3160 3158 3155 3152 3149 3146 3143 3140 3136 3133 3130 3126 3123 3120 3118 3116 3113 3112 3110 3109 3109 3109 3109 3109 3109 3109 3108 3108 3108
3168 3166 3164 3161 3158 3156 3153 3149 3146 3142 3139 3135 3132 3128 3125 3121 3118 3115 3113 3110 3107 3105 3104 3103 3102 3102 3102 3101 3101 3100 3100 3101 3102
3166 3164 3162 3158 3156 3153 3150 3146 3142 3139 3135 3131 3128 3124 3121 3118 3114 3110 3107 3105 3102 3100 3099 3097 3097 3095 3095 3095 3094 3094 3094 3095 3095
3164 3162 3159 3157 3153 3150 3146 3142 3138 3134 3130 3127 3124 3120 3117 3114 3111 3107 3103 3100 3097 3095 3094 3092 3091 3091 3090 3089 3088 3088 3089 3089 3089
3162 3160 3157 3154 3150 3147 3143 3139 3135 3132 3127 3124 3120 3117 3114 3111 3108 3103 3099 3097 3094 3092 3090 3088 3087 3086 3085 3084 3083 3083 3082 3082 3083
3160 3157 3154 3151 3148 3143 3140 3137 3133 3128 3125 3121 3117 3114 3111 3108 3105 3101 3098 3095 3092 3089 3087 3085 3083 3082 3080 3079 3078 3077 3077 3077 3078
3157 3155 3152 3148 3145 3141 3137 3133 3129 3125 3121 3118 3114 3111 3108 3106 3103 3100 3097 3093 3090 3088 3086 3083 3080 3078 3077 3076 3075 3075 3075 3074 3075
3154 3152 3149 3145 3142 3139 3135 3132 3128 3123 3119 3115 3112 3109 3106 3104 3102 3099 3096 3092 3089 3086 3084 3080 3077 3076 3075 3074 3073 3072 3072 3072 3072
3151 3149 3146 3143 3139 3136 3133 3129 3127 3122 3117 3113 3111 3108 3104 3102 3100 3097 3094 3091 3088 3085 3081 3078 3076 3074 3072 3071 3070 3069 3069 3069 3069
3148 3145 3143 3139 3136 3133 3130 3127 3123 3120 3115 3111 3109 3106 3103 3100 3098 3095 3093 3090 3086 3083 3080 3077 3075 3072 3070 3069 3067 3067 3067 3066 3066
3145 3142 3138 3135 3132 3130 3127 3124 3121 3118 3113 3108 3105 3104 3101 3098 3095 3093 3091 3089 3086 3082 3079 3076 3074 3071 3068 3067 3066 3065 3064 3063 3063
3140 3137 3134 3132 3129 3125 3122 3120 3117 3113 3110 3107 3103 3101 3100 3097 3093 3090 3087 3085 3084 3081 3077 3075 3072 3070 3068 3065 3064 3062 3061 3061 3059
3136 3134 3131 3128 3125 3122 3118 3115 3112 3109 3106 3103 3100 3096 3095 3094 3091 3088 3085 3082 3079 3078 3076 3073 3070 3068 3066 3064 3062 3060 3059 3058 3057
3133 3131 3127 3123 3120 3116 3113 3110 3107 3104 3101 3099 3097 3093 3091 3089 3089 3086 3082 3079 3077 3075 3073 3071 3068 3065 3064 3063 3061 3059 3057 3055 3055
3128 3125 3122 3118 3114 3111 3108 3104 3101 3098 3096 3093 3091 3089 3086 3084 3083 3083 3082 3078 3072 3071 3070 3068 3066 3063 3061 3060 3059 3057 3056 3053 3052